Regional Weather Roundup
Issued by NWS

Home | Current Version | Previous Version | Text Only | Print | Product List | Glossary On
Versions: 1 2 3 4 5 6 7 8 9 10 11 12 13 14 15 16 17 18 19 20 21 22 23 24 25 26 27 28 29 30 31 32 33 34 35 36 37 38 39 40 41 42 43 44 45 46 47 48 49 50
000
ASUS43 KDTX 280910
RWRMI
MICHIGAN HOURLY REGIONAL WEATHER ROUNDUP
NATIONAL WEATHER SERVICE DETROIT/PONTIAC MI
500 AM EDT THU AUG 28 2014

NOTE: "FAIR" INDICATES FEW OR NO CLOUDS BELOW 12,000 FEET WITH NO
SIGNIFICANT WEATHER AND/OR OBSTRUCTION TO VISIBILITY.

MIZ047>049-052>055-059>063-066>070-074>076-081>083-281000-
SOUTHEAST LOWER MICHIGAN

CITY           SKY/WX    TMP DP  RH WIND       PRES   REMARKS
ADRIAN         CLOUDY    62  55  77 E8        30.15R
ALMA           CLEAR     48  47  95 CALM      30.17S
ANN ARBOR      CLEAR     58  54  86 NE5       30.14R
BAD AXE        CLEAR     49  49 100 CALM      30.15S
DETROIT CITY   CLEAR     63  55  75 N3        30.14R
DETROIT        MOCLDY    63  56  78 N5        30.14R
FLINT          PTCLDY    58  53  84 N5        30.15S
GROSSE ILE     CLEAR     61  54  77 E3        30.13R
HILLSDALE      CLOUDY    60  60 100 CALM      30.14S
HOWELL         MOCLDY    56  55  96 CALM      30.15S

CITY           SKY/WX    TMP DP  RH WIND       PRES   REMARKS
JACKSON        CLOUDY    59  56  89 CALM      30.14S
LAMBERTVILLE   CLOUDY    61  55  82 NE5       30.13S
LANSING        PTCLDY    56  52  86 N3        30.16S
LAPEER         NOT AVBL
MASON          CLOUDY    58  56  92 CALM      30.15S
MONROE         MOCLDY    61  55  82 CALM      30.12R
MT. CLEMENS    MOCLDY    58  54  86 W5        30.13R
PONTIAC        MOCLDY    59  52  77 CALM      30.14R
PORT HOPE        N/A     60  51  72 VRB3      30.12S
PORT HURON     CLEAR     54  54 100 NW5       30.14R
TRI CITIES     CLEAR     52  47  83 N8        30.17R
YPSILANTI      CLEAR     63  55  75 N6        30.15R
$$
MIZ043>046-050>051-056>058-064>065-071>073-077>080-281000-
SOUTHWEST LOWER MICHIGAN

CITY           SKY/WX    TMP DP  RH WIND       PRES   REMARKS
BATTLE CREEK   CLEAR     57  51  80 CALM      30.15S
BENTON HARBOR  PTCLDY    57  54  89 NE5       30.14S
BIG RAPIDS     CLEAR     47  47 100 W5        30.17S
COLDWATER      CLEAR     59  56  90 NE3       30.14R
HOLLAND        CLEAR     55  52  89 E5        30.17R
GRAND RAPIDS   CLEAR     55  54  96 N6        30.17S
KALAMAZOO      CLEAR     57  51  80 N5        30.15R
MARSHALL       MOCLDY    56  52  88 NW3       30.14S
MUSKEGON       CLEAR     56  50  80 E7        30.17S
$$
MIZ016>042-281000-
NORTHERN LOWER MICHIGAN

CITY           SKY/WX    TMP DP  RH WIND       PRES   REMARKS
ALPENA         CLEAR     47  44  90 CALM      30.16S
BEAVER ISLAND  CLOUDY    46  46  98 CALM      30.18S
BELLAIRE       MOCLDY    44  43  97 CALM      30.19S
CADILLAC       CLEAR     40  40 100 CALM      30.17F
CHARLEVOIX     PTCLDY    49  47  94 CALM      30.21S
FRANKFORT      SUNNY     46  43  89 CALM      30.18S
GAYLORD        CLEAR     44  40  85 W3        30.18S
GRAYLING       CLEAR     40  40 100 CALM      30.19S
HARBOR SPRINGS CLEAR     46  43  90 CALM      30.18S
HOUGHTON LAKE  CLEAR     40  40 100 CALM      30.18S FOG
MANISTEE       CLEAR     46  45  93 E7        30.18S
OSCODA         CLEAR     47  45  94 CALM      30.15S
PELLSTON       CLEAR     41  40  96 W3        30.18S
TRAVERSE CITY  CLEAR     47  44  90 CALM      30.17F
$$
MIZ007>008-015-281000-
EASTERN UPPER MICHIGAN

CITY           SKY/WX    TMP DP  RH WIND       PRES   REMARKS
KINROSS        CLEAR     46  46 100 W3        30.16F
MACKINAC ISLAN CLEAR     50  47  92 W8        30.17S
NEWBERRY       CLEAR     40  38  94 W6        30.18S
S. S. MARIE    CLEAR     51  48  89 NW5       30.16S
$$
MIZ004>006-011>014-085-281000-
CENTRAL UPPER MICHIGAN

CITY           SKY/WX    TMP DP  RH WIND       PRES   REMARKS
MANISTIQUE     CLOUDY    49  45  87 CALM      30.18S
ESCANABA       CLOUDY    54  48  82 CALM      30.17F
MENOMINEE      CLOUDY    59  52  77 CALM      30.16S
SAWYER-GWINN   CLEAR     42  39  88 CALM      30.18F
$$
MIZ001>003-009>011-084-281000-
WESTERN UPPER MICHIGAN

CITY           SKY/WX    TMP DP  RH WIND       PRES   REMARKS
IRON MOUNTAIN  CLOUDY    49  47  93 N3        30.17S
HOUGHTON       CLOUDY    51  45  79 CALM      30.15F
COPPER HARBOR    N/A     51  43  74 CALM      30.15F
$$

ABBREVIATIONS USED IN REMARKS
   TC - TEMPERATURE IN CELSIUS
  WCI - WIND CHILL INDEX
   HX - HEAT INDEX
  VSB - VISIBILITY



USA.gov is the U.S. government's official web portal to all federal, state and local government web resources and services.